| time (UTC) | temp C | wind direction | speed KPH | gust KPH | rain 1hr cm | rain 24hr cm | rain mn cm | humidity % | barometer mb |
| 20260510033001 | 7 | 285 | 0.0 | 1.6 | 0.00 | 1.30 | 1.30 | 90 | 1009.9 |
| 20260510031459 | 7 | 284 | 0.0 | 3.2 | 0.00 | 1.30 | 1.30 | 90 | 1010.0 |
| 20260510025959 | 7 | 156 | 1.6 | 4.8 | 0.00 | 1.30 | 1.30 | 90 | 1010.0 |
| 20260510024457 | 7 | 150 | 1.6 | 6.4 | 0.00 | 1.30 | 1.30 | 90 | 1009.9 |
| 20260510022958 | 8 | 141 | 3.2 | 8.0 | 0.00 | 1.30 | 1.30 | 90 | 1010.0 |
| 20260510021458 | 8 | 155 | 4.8 | 9.7 | 0.00 | 1.30 | 1.30 | 89 | 1009.9 |
| 20260510015958 | 8 | 150 | 3.2 | 8.0 | 0.00 | 1.30 | 1.30 | 89 | 1010.0 |
| 20260510012958 | 8 | 135 | 3.2 | 6.4 | 0.00 | 1.30 | 1.30 | 88 | 1009.8 |
| 20260510011457 | 8 | 162 | 1.6 | 4.8 | 0.00 | 1.30 | 1.30 | 88 | 1009.4 |
| 20260510005958 | 8 | 202 | 1.6 | 8.0 | 0.00 | 1.30 | 1.30 | 87 | 1009.5 |
| 20260510004457 | 8 | 222 | 0.0 | 1.6 | 0.00 | 1.32 | 1.30 | 86 | 1009.2 |
| 20260510002957 | 8 | 165 | 1.6 | 4.8 | 0.00 | 1.32 | 1.30 | 85 | 1009.2 |
| 20260510001457 | 10 | 152 | 1.6 | 8.0 | 0.00 | 1.32 | 1.30 | 84 | 1009.1 |
| 20260509235959 | 10 | 191 | 3.2 | 8.0 | 0.00 | 1.32 | 1.30 | 83 | 1009.2 |
| 20260509234458 | 10 | 111 | 3.2 | 6.4 | 0.00 | 1.37 | 1.30 | 83 | 1008.9 |
| 20260509232957 | 11 | 210 | 3.2 | 11.3 | 0.00 | 1.37 | 1.30 | 82 | 1008.6 |
| 20260509225959 | 11 | 129 | 4.8 | 12.9 | 0.00 | 1.37 | 1.30 | 81 | 1008.4 |
| 20260509224458 | 11 | 195 | 4.8 | 20.9 | 0.00 | 1.37 | 1.30 | 80 | 1008.2 |
| 20260509222957 | 12 | 280 | 4.8 | 14.5 | 0.00 | 1.37 | 1.30 | 81 | 1008.5 |
| 20260509220000 | 12 | 88 | 3.2 | 9.7 | 0.00 | 1.37 | 1.30 | 85 | 1008.7 |
| 20260509214458 | 11 | 254 | 4.8 | 11.3 | 0.00 | 1.37 | 1.30 | 87 | 1008.8 |
| 20260509212959 | 11 | 229 | 4.8 | 14.5 | 0.00 | 1.37 | 1.30 | 88 | 1008.9 |
| 20260509205958 | 10 | 204 | 6.4 | 17.7 | 0.00 | 1.37 | 1.30 | 89 | 1009.2 |
| 20260509204457 | 10 | 218 | 6.4 | 17.7 | 0.03 | 1.37 | 1.30 | 89 | 1009.3 |
| 20260509202957 | 10 | 246 | 6.4 | 19.3 | 0.03 | 1.37 | 1.30 | 90 | 1009.2 |
| 20260509201458 | 10 | 259 | 6.4 | 19.3 | 0.08 | 1.37 | 1.30 | 90 | 1009.2 |
| 20260509200000 | 10 | 229 | 6.4 | 16.1 | 0.20 | 1.37 | 1.30 | 91 | 1009.2 |
| 20260509194458 | 10 | 212 | 4.8 | 12.9 | 0.25 | 1.37 | 1.27 | 91 | 1009.5 |
| 20260509185959 | 9 | 238 | 8.0 | 1054.1 | 2.84 | 0.00 | 1.09 | 90 | |
| 20260509184457 | 9 | 203 | 4.8 | 19.3 | 0.25 | 1.12 | 1.02 | 91 | 1010.3 |
| 20260509182958 | 8 | 134 | 4.8 | 11.3 | 0.25 | 1.07 | 0.97 | 91 | 1010.4 |
| 20260509181457 | 8 | 172 | 4.8 | 16.1 | 0.28 | 0.99 | 0.89 | 91 | 1010.5 |
| 20260509180000 | 8 | 181 | 4.8 | 17.7 | 0.28 | 0.91 | 0.81 | 91 | 1010.5 |
| 20260509174457 | 8 | 128 | 4.8 | 12.9 | 0.25 | 0.86 | 0.76 | 91 | 1010.3 |
| 20260509172957 | 8 | 205 | 4.8 | 17.7 | 0.20 | 0.79 | 0.69 | 91 | 1010.3 |
| 20260509171458 | 9 | 129 | 6.4 | 14.5 | 0.15 | 0.71 | 0.61 | 91 | 1010.3 |
| 20260509170000 | 9 | 134 | 4.8 | 9.7 | 0.10 | 0.64 | 0.53 | 91 | 1010.2 |
| 20260509164457 | 9 | 153 | 4.8 | 12.9 | 0.10 | 0.61 | 0.51 | 91 | 1010.4 |
| 20260509161458 | 8 | 132 | 8.0 | 22.5 | 0.08 | 0.56 | 0.46 | 91 | 1010.5 |
| 20260509155959 | 8 | 136 | 6.4 | 17.7 | 0.08 | 0.53 | 0.43 | 91 | 1010.6 |
| 20260509154457 | 8 | 154 | 6.4 | 14.5 | 0.08 | 0.51 | 0.41 | 91 | 1010.5 |
| 20260509152957 | 9 | 186 | 6.4 | 14.5 | 0.08 | 0.48 | 0.38 | 91 | 1010.7 |
| 20260509145959 | 8 | 150 | 4.8 | 9.7 | 0.10 | 0.46 | 0.36 | 91 | 1010.7 |
| 20260509144457 | 8 | 103 | 6.4 | 11.3 | 0.08 | 0.43 | 0.33 | 91 | 1010.5 |
| 20260509142957 | 8 | 157 | 6.4 | 17.7 | 0.08 | 0.41 | 0.30 | 91 | 1011.2 |
| 20260509141457 | 8 | 139 | 6.4 | 16.1 | 0.08 | 0.38 | 0.28 | 91 | 1011.1 |
| 20260509135957 | 8 | 162 | 3.2 | 9.7 | 0.05 | 0.36 | 0.25 | 91 | 1010.7 |
| 20260509133004 | 8 | 154 | 3.2 | 6.4 | 0.05 | 0.33 | 0.23 | 91 | 1010.6 |
| 20260509131457 | 8 | 122 | 3.2 | 6.4 | 0.03 | 0.30 | 0.20 | 91 | 1010.8 |
| 20260509122957 | 7 | 146 | 3.2 | 9.7 | 0.05 | 0.28 | 0.18 | 91 | 1010.8 |
| 20260509121457 | 7 | 116 | 1.6 | 4.8 | 0.05 | 0.28 | 0.18 | 91 | 1010.6 |
| 20260509115957 | 7 | 113 | 3.2 | 6.4 | 0.05 | 0.25 | 0.15 | 91 | 1010.8 |
| 20260509114457 | 7 | 150 | 1.6 | 4.8 | 0.05 | 0.25 | 0.15 | 91 | 1010.8 |
| 20260509112957 | 7 | 141 | 1.6 | 4.8 | 0.03 | 0.23 | 0.13 | 91 | 1010.9 |
| 20260509111457 | 7 | 143 | 1.6 | 8.0 | 0.05 | 0.23 | 0.13 | 91 | 1010.8 |
| 20260509105957 | 7 | 159 | 3.2 | 8.0 | 0.03 | 0.20 | 0.10 | 92 | 1010.8 |
| 20260509104457 | 6 | 207 | 1.6 | 4.8 | 0.03 | 0.20 | 0.10 | 92 | 1010.7 |
| 20260509102956 | 6 | 154 | 0.0 | 3.2 | 0.03 | 0.20 | 0.10 | 92 | 1010.6 |
| 20260509101457 | 6 | 277 | 1.6 | 3.2 | 0.00 | 0.18 | 0.08 | 92 | 1010.7 |
| 20260509100000 | 6 | 115 | 1.6 | 4.8 | 0.00 | 0.18 | 0.08 | 91 | 1010.5 |
| 20260509094458 | 6 | 146 | 0.0 | 1.6 | 0.00 | 0.18 | 0.08 | 91 | 1010.4 |
| 20260509092958 | 6 | 146 | 0.0 | 1.6 | 0.00 | 0.18 | 0.08 | 91 | 1010.6 |
| 20260509091458 | 6 | 147 | 0.0 | 1.6 | 0.00 | 0.18 | 0.08 | 91 | 1010.7 |
| 20260509084458 | 6 | 147 | 0.0 | 1.6 | 0.00 | 0.18 | 0.08 | 91 | 1011.2 |
| 20260509082956 | 6 | 147 | 0.0 | 1.6 | 0.00 | 0.18 | 0.08 | 91 | 1011.5 |
| 20260509081457 | 6 | 146 | 0.0 | 3.2 | 0.00 | 0.18 | 0.08 | 91 | 1011.7 |
| 20260509075957 | 6 | 160 | 1.6 | 4.8 | 0.00 | 0.20 | 0.08 | 91 | 1011.6 |
| 20260509074457 | 6 | 136 | 0.0 | 1.6 | 0.00 | 0.20 | 0.08 | 91 | 1011.4 |
| 20260509065959 | 6 | 137 | 0.0 | 3.2 | 0.03 | 0.20 | 0.08 | 91 | 1011.2 |
| 20260509064458 | 6 | 358 | 1.6 | 3.2 | 0.05 | 0.20 | 0.08 | 91 | 1011.1 |
| 20260509062958 | 6 | 332 | 0.0 | 1.6 | 0.08 | 0.20 | 0.08 | 91 | 1011.7 |
| 20260509061459 | 6 | 248 | 0.0 | 1.6 | 0.08 | 0.20 | 0.08 | 91 | 1012.0 |
| 20260509060000 | 6 | 242 | 0.0 | 4.8 | 0.05 | 0.18 | 0.05 | 91 | 1012.4 |
| 20260509054458 | 6 | 198 | 1.6 | 6.4 | 0.03 | 0.20 | 0.03 | 90 | 1012.6 |
| 20260509051459 | 6 | 162 | 1.6 | 4.8 | 0.00 | 0.18 | 0.00 | 90 | 1012.1 |
| 20260509045959 | 6 | 173 | 0.0 | 1.6 | 0.00 | 0.18 | 0.00 | 90 | 1011.5 |
| 20260509044459 | 6 | 244 | 0.0 | 1.6 | 0.00 | 0.36 | 0.00 | 90 | 1011.8 |
| 20260509042959 | 6 | 245 | 0.0 | 1.6 | 0.00 | 0.36 | 0.00 | 90 | 1011.6 |
| 20260509041459 | 6 | 245 | 0.0 | 1.6 | 0.00 | 0.36 | 0.00 | 90 | 1012.0 |
| 20260509040002 | 5 | 245 | 0.0 | 1.6 | 0.00 | 0.36 | 0.00 | 90 | 1012.0 |
| 20260509034459 | 5 | 243 | 0.0 | 0.0 | 0.00 | 0.48 | 0.36 | 89 | 1012.0 |